Regional Weather Roundup
Issued by NWS

Home | Current Version | Previous Version | Text Only | Print | Product List | Glossary Off
Versions: 1 2 3 4 5 6 7 8 9 10 11 12 13 14 15 16 17 18 19 20 21 22 23 24 25 26 27 28 29 30 31 32 33 34 35 36 37 38 39 40 41 42 43 44 45 46 47 48 49

000
ASUS45 KCYS 040110
RWRWY

WYOMING REGIONAL WEATHER ROUNDUP
NATIONAL WEATHER SERVICE CHEYENNE WY
700 PM MDT SUN MAY 03 2015

NOTE:  "FAIR" INDICATES FEW OR NO CLOUDS BELOW 12,000 FEET
WITH NO SIGNIFICANT WEATHER AND/OR OBSTRUCTIONS TO VISIBILITY.

WYZ001-040200-
YELLOWSTONE NATIONAL PARK

CITY           SKY/WX    TMP DP  RH WIND       PRES   REMARKS
LK YELLOWSTONE   N/A     39  36  89 VRB6      30.11R WCI  35
W YELLOWSTONE  NOT AVBL

$$
WYZ002>013-054>058-071-098>099-040200-
NORTHERN WYOMING

CITY           SKY/WX    TMP DP  RH WIND       PRES   REMARKS
JACKSON        PTSUNNY   52  39  62 VRB6      30.02R
CODY           CLOUDY    55  34  44 NW8       29.99S
GREYBULL       FAIR      69  33  26 N12       29.90S
WORLAND        PTSUNNY   66  36  32 N5        29.90F
SHERIDAN       CLOUDY    60  43  53 E6        29.99S
BUFFALO        PTSUNNY   55  44  66 E6        30.03R
GILLETTE       PTSUNNY   60  38  43 E20       30.00R
HULETT         FAIR      57  34  41 E13       30.04R
NEWCASTLE      CLOUDY    57  36  44 NE18      30.02S

$$
WYZ014>020-022>026-101>103-040200-
CENTRAL WYOMING

CITY           SKY/WX    TMP DP  RH WIND       PRES   REMARKS
BIG PINEY      FAIR      56  38  50 SE5       30.03S
PINEDALE       FAIR      54  32  43 W3        30.03S
DUBOIS         FAIR      54  28  37 S3        29.99R
LANDER         FAIR      57  41  55 SW12      29.92F
RIVERTON       PTSUNNY   59  37  44 NW5       29.97R
CASPER         FAIR      63  36  36 E9        29.94S
DOUGLAS        PTSUNNY   61  40  45 SE18G28   29.98R

$$
WYZ021-027>030-104>119-040200-
SOUTHERN WYOMING

CITY           SKY/WX    TMP DP  RH WIND       PRES   REMARKS
EVANSTON       FAIR      58  34  40 SW3       30.00S
KEMMERER       DRIZZLE   45  43  93 N10       30.07R
FORT BRIDGER   CLEAR     55  43  62 E9        30.06R
ROCK SPRINGS   CLOUDY    56  35  45 NW5       30.04R
DIXON          FAIR      57  40  53 E9        30.07F
RAWLINS        FAIR      49  43  80 NW14      30.03F
SARATOGA       DRIZZLE   48  41  76 W6        30.10R
LARAMIE        LGT RAIN  50  41  71 SE12      30.08R
CHEYENNE       CLOUDY    52  44  74 E3        30.06S
TORRINGTON     FAIR      65  38  36 E13G21    29.98R
PINE BLUFFS    FAIR      54  43  66 E10       30.03R

$$


USA.gov is the U.S. government's official web portal to all federal, state and local government web resources and services.